Regional Weather Roundup
Issued by NWS

Home | Current Version | Previous Version | Text Only | Print | Product List | Glossary Off
Versions: 1 2 3 4 5 6 7 8 9 10 11 12 13 14 15 16 17 18 19 20 21 22 23 24 25 26 27 28

000
ASUS45 KSLC 271710
RWRUT

UTAH REGIONAL WEATHER ROUNDUP
NATIONAL WEATHER SERVICE SALT LAKE CITY UT
1100 AM MDT THU APR 27 2017

UTZ001>011-023>025-271800-

NORTHERN UTAH

CITY           SKY/WX    TMP DP  RH WIND       PRES   REMARKS
BRIGHAM CITY   CLOUDY    45  26  47 NW14      29.83S
DUGWAY         MOSUNNY   46  27  46 NE6       29.86S
HILL AFB       PTSUNNY   43  25  49 NW7G17    29.82S
LOGAN          CLOUDY    44  27  51 NW14      29.81S
OGDEN          MOSUNNY   46  26  45 N9        29.82S
SALT LAKE CITY PTSUNNY   46  28  49 NW20      29.84R
TOOELE VALLEY  PTSUNNY   46  30  53 NW16G23   29.87R
WENDOVER       NOT AVBL
HEBER CITY     CLOUDY    41  23  48 CALM      29.78R
WEST JORDAN    MOSUNNY   48  35  60 W16G26    29.85S

$$

UTZ011>015-024>027-271800-

CENTRAL/NORTHEAST UTAH

CITY           SKY/WX    TMP DP  RH WIND       PRES   REMARKS
PROVO AIRPORT  PTSUNNY   46  24  42 NW20G28   29.85R
MOAB/CANYONLAN MOSUNNY   58  25  28 W16       29.68F
DELTA          MOSUNNY   46  27  46 N16G24    29.86S
PRICE          SUNNY     45  23  42 NW20G30   29.73S
RICHFIELD      SUNNY     46  25  42 W8        29.85
ROOSEVELT      SUNNY     50  18  27 W24G32    29.70R
VERNAL         LGT RAIN  45  36  70 S8        29.64S

$$

UTZ013>016-019>022-027-271800-

SOUTHERN UTAH

CITY           SKY/WX    TMP DP  RH WIND       PRES   REMARKS
BRYCE CANYON   MOSUNNY   41  28  60 NW17G26   29.86S
CEDAR CITY     PTSUNNY   49  35  58 VRB6      29.85F
MILFORD        MOSUNNY   50  33  52 N9        29.84F
ST GEORGE      MOSUNNY   67  31  26 NW13G23   29.80R
HANKSVILLE     SUNNY     55  27  33 NW17G23   29.77S
KANAB          MOSUNNY   63  28  27 NW9G21    29.84
BLANDING       PTSUNNY   48  31  50 W15G22    29.81F

$$

REGIONAL REPORTS     COLORADO/ARIZONA

CITY           SKY/WX    TMP DP  RH WIND       PRES   REMARKS
CRAIG, CO      CLOUDY    40  26  57 NW10      29.67S WCI  33
GRAND JUNCTION CLOUDY    51  35  54 NW12      29.66F
RIFLE, CO      CLOUDY    50  32  50 W20G26    29.65S
MONTROSE, CO   CLOUDY    51  36  56 VRB5      29.70F
CORTEZ, CO     LGT RAIN  45  38  76 NW14      29.75R
COLORADO CITY    N/A     63  30  29 NW15G25   29.86R
PAGE, AZ       MOSUNNY   63  30  28 NW16G29   29.75R
GRAND CANYON   SUNNY     57  27  31 NW12G24   29.85S
KINGMAN, AZ    SUNNY     73  28  18 N15G24    29.79F
FLAGSTAFF, AZ  SUNNY     56  29  35 W15G28    29.87S

$$

REGIONAL REPORTS    NEVADA/IDAHO/WYOMING

CITY           SKY/WX    TMP DP  RH WIND       PRES   REMARKS
LAS VEGAS, NV  MOSUNNY   76  22  13 N22G36    29.75S
ELY, NY        PTSUNNY   43  26  51 W16       29.89S
ELKO, NV       CLOUDY    41  28  60 NW10      29.91S
POCATELLO, ID  CLOUDY    39  32  76 W23G29    29.80S WCI  28
BURLEY, ID     LGT RAIN  43  30  60 W29G41    29.82F
FORT BRIDGER,  CLOUDY    35  26  68 W32G44    29.74R WCI  22
EVANSTON, WY   CLOUDY    32  23  69 W21G29    29.75R WCI  20
ROCK SPRINGS,  CLOUDY    39  26  59 W31G41    29.64S WCI  27
KEMMERER, WY   FLURRIES  32  27  80 W28G40    29.69R WCI  18

$$




USA.gov is the U.S. government's official web portal to all federal, state and local government web resources and services.